^^
Station Historical Data
 
Daily Summary for July 18, 2018 Units:  Metric    English   Both
« Previous Day
Next Day »
Daily Weekly Monthly Yearly Custom
  Current: High: Low: Average:
Temperature: -7.3 °C -17.8 °C -9.6 °C -8.8 °C
Dew Point: -9.9 °C -17.8 °C -10.9 °C -10.4 °C
Humidity: 74% Humidity% 72% 83%
Wind Speed: 18.2km/h 0km/h 0km/h 5.8km/h
Wind Gust: 31.1km/h 0km/h - -
WindWSW - - SW
Pressure: 34466.1 hPa 0 hPa 34418.7 hPa -
Precipitation: 0 mm      
Historical Graphs
 
 
Tabular Data for July 18, 2018
Time Temperature Dew Point Pressure Wind Wind Speed Wind Gust Humidity Rainfall Rate (Hourly) solar Conditions
-17.8 °C -17.8 °C 0 hPa Calm     Humidity% 0 mm SolarRadiationWatts/m^2 W/m2 Conditions
00:05 -9.4 °C -10.8 °C 34442.4 hPa Calm     85% 0 mm 0.00 W/m2 RA
00:09 -9.3 °C -10.7 °C 34442.4 hPa Calm     85% 0 mm 0.00 W/m2 RA
00:14 -9.3 °C -10.7 °C 34442.4 hPa Calm     85% 0 mm 0.00 W/m2 CLR
00:19 -9.3 °C -10.7 °C 34439 hPa Calm     85% 0 mm 0.00 W/m2 CLR
00:25 -9.3 °C -10.7 °C 34442.4 hPa Calm     85% 0 mm 0.00 W/m2 CLR
00:30 -9.3 °C -10.7 °C 34445.8 hPa Calm     85% 0 mm 0.00 W/m2 CLR
00:34 -9.3 °C -10.8 °C 34439 hPa Calm     84% 0 mm 0.00 W/m2 CLR
00:39 -9.3 °C -10.8 °C 34439 hPa Calm     84% 0 mm 0.00 W/m2 CLR
00:44 -9.3 °C -10.7 °C 34439 hPa Calm     84% 0 mm 0.00 W/m2 CLR
00:49 -9.3 °C -10.8 °C 34442.4 hPa Calm     84% 0 mm 0.00 W/m2 CLR
00:54 -9.3 °C -10.8 °C 34439 hPa Calm     84% 0 mm 0.00 W/m2 CLR
00:59 -9.4 °C -10.9 °C 34439 hPa Calm     84% 0 mm 0.00 W/m2 CLR
01:04 -9.5 °C -10.9 °C 34439 hPa Calm     84% 0 mm 0.00 W/m2 CLR
01:09 -9.6 °C -10.9 °C 34439 hPa Calm     85% 0 mm 0.00 W/m2 CLR
01:14 -9.6 °C -10.8 °C 34439 hPa Calm     86% 0 mm 0.00 W/m2 CLR
01:19 -9.6 °C -10.9 °C 34435.6 hPa Calm     86% 0 mm 0.00 W/m2 CLR
01:24 -9.6 °C -10.8 °C 34439 hPa Calm     86% 0 mm 0.00 W/m2 CLR
01:29 -9.5 °C -10.8 °C 34439 hPa Calm     86% 0 mm 0.00 W/m2 CLR
01:34 -9.5 °C -10.8 °C 34439 hPa Calm     86% 0 mm 0.00 W/m2 CLR
01:39 -9.4 °C -10.7 °C 34439 hPa Calm     86% 0 mm 0.00 W/m2 CLR
01:44 -9.4 °C -10.7 °C 34439 hPa Calm     86% 0 mm 0.00 W/m2 CLR
01:49 -9.4 °C -10.7 °C 34442.4 hPa Calm     86% 0 mm 0.00 W/m2 CLR
01:54 -9.4 °C -10.7 °C 34439 hPa WSW 9 km/h 5.5 km/h 86% 0 mm 0.00 W/m2 CLR
02:00 -9.3 °C -10.6 °C 34439 hPa WSW 5.1 km/h 10.3 km/h 86% 0 mm 0.00 W/m2 CLR
02:04 -9.3 °C -10.6 °C 34442.4 hPa West 15.6 km/h 8.2 km/h 86% 0 mm 0.00 W/m2 CLR
02:09 -9.3 °C -10.6 °C 34439 hPa WSW 9 km/h 5 km/h 86% 0 mm 0.00 W/m2 CLR
02:14 -9.3 °C -10.6 °C 34435.6 hPa WSW 9 km/h 6.8 km/h 86% 0 mm 0.00 W/m2 CLR
02:19 -9.3 °C -10.6 °C 34439 hPa WSW 6 km/h 0.5 km/h 86% 0 mm 0.00 W/m2 CLR
02:24 -9.3 °C -10.6 °C 34439 hPa Calm     86% 0 mm 0.00 W/m2 CLR
02:29 -9.3 °C -10.6 °C 34435.6 hPa Calm     86% 0 mm 0.00 W/m2 CLR
02:34 -9.3 °C -10.6 °C 34435.6 hPa Calm     86% 0 mm 0.00 W/m2 CLR
02:39 -9.3 °C -10.6 °C 34435.6 hPa Calm     86% 0 mm 0.00 W/m2 CLR
02:44 -9.3 °C -10.6 °C 34435.6 hPa Calm     86% 0 mm 0.00 W/m2 CLR
02:49 -9.3 °C -10.6 °C 34435.6 hPa Calm     86% 0 mm 0.00 W/m2 CLR
02:54 -9.3 °C -10.6 °C 34435.6 hPa Calm     86% 0 mm 0.00 W/m2 CLR
02:59 -9.3 °C -10.6 °C 34435.6 hPa Calm     86% 0 mm 0.00 W/m2 CLR
03:05 -9.3 °C -10.6 °C 34435.6 hPa Calm     86% 0 mm 0.00 W/m2 BKN
03:09 -9.3 °C -10.6 °C 34432.2 hPa Calm     86% 0 mm 0.00 W/m2 BKN
03:14 -9.3 °C -10.5 °C 34428.8 hPa Calm     87% 0 mm 0.00 W/m2 BKN
03:19 -9.3 °C -10.5 °C 34428.8 hPa Calm     87% 0 mm 0.00 W/m2 BKN
03:24 -9.3 °C -10.5 °C 34428.8 hPa Calm     87% 0 mm 0.00 W/m2 BKN
03:30 -9.3 °C -10.5 °C 34428.8 hPa Calm     87% 0 mm 0.00 W/m2 BKN
03:34 -9.3 °C -10.5 °C 34425.5 hPa Calm     87% 0 mm 0.00 W/m2 BKN
03:39 -9.3 °C -10.5 °C 34425.5 hPa Calm     87% 0 mm 0.00 W/m2 BKN
03:44 -9.3 °C -10.5 °C 34425.5 hPa Calm     87% 0 mm 0.00 W/m2 BKN
03:50 -9.3 °C -10.5 °C 34425.5 hPa Calm     87% 0 mm 0.00 W/m2 BKN
03:54 -9.3 °C -10.5 °C 34425.5 hPa Calm     87% 0 mm 0.00 W/m2 BKN
03:59 -9.3 °C -10.4 °C 34425.5 hPa Calm     88% 0 mm 0.00 W/m2 BKN
04:04 -9.3 °C -10.4 °C 34425.5 hPa Calm     88% 0 mm 0.00 W/m2 CLR
04:09 -9.3 °C -10.4 °C 34422.1 hPa Calm     88% 0 mm 0.00 W/m2 CLR
04:14 -9.3 °C -10.3 °C 34418.7 hPa Calm     89% 0 mm 0.00 W/m2 CLR
04:20 -9.3 °C -10.3 °C 34422.1 hPa Calm     89% 0 mm 0.00 W/m2 CLR
04:24 -9.4 °C -10.4 °C 34422.1 hPa Calm     89% 0 mm 0.00 W/m2 CLR
04:29 -9.4 °C -10.4 °C 34425.5 hPa Calm     89% 0 mm 0.00 W/m2 CLR
04:34 -9.4 °C -10.4 °C 34425.5 hPa Calm     89% 0 mm 0.00 W/m2 CLR
04:39 -9.4 °C -10.4 °C 34425.5 hPa Calm     89% 0 mm 0.00 W/m2 CLR
04:45 -9.4 °C -10.4 °C 34425.5 hPa Calm     89% 0 mm 0.00 W/m2 CLR
04:49 -9.5 °C -10.4 °C 34425.5 hPa Calm     89% 0 mm 0.00 W/m2 CLR
04:54 -9.4 °C -10.3 °C 34425.5 hPa Calm     90% 0 mm 0.00 W/m2 CLR
04:59 -9.4 °C -10.3 °C 34428.8 hPa Calm     90% 0 mm 0.00 W/m2 CLR
05:04 -9.4 °C -10.4 °C 34428.8 hPa Calm     89% 0 mm 0.00 W/m2 BKN
05:09 -9.4 °C -10.4 °C 34428.8 hPa Calm     89% 0 mm 0.00 W/m2 BKN
05:14 -9.4 °C -10.4 °C 34428.8 hPa Calm     89% 0 mm 0.00 W/m2 BKN
05:19 -9.4 °C -10.4 °C 34428.8 hPa Calm     89% 0 mm 0.00 W/m2 BKN
05:24 -9.4 °C -10.4 °C 34432.2 hPa Calm     89% 0 mm 0.00 W/m2 BKN
05:29 -9.4 °C -10.4 °C 34428.8 hPa Calm     89% 0 mm 0.00 W/m2 BKN
05:34 -9.4 °C -10.4 °C 34428.8 hPa Calm     89% 0 mm 5.50 W/m2 BKN
05:40 -9.4 °C -10.4 °C 34432.2 hPa Calm     89% 0 mm 7.70 W/m2 BKN
05:44 -9.4 °C -10.4 °C 34428.8 hPa Calm     89% 0 mm 9.90 W/m2 BKN
05:49 -9.4 °C -10.4 °C 34428.8 hPa Calm     89% 0 mm 13.20 W/m2 BKN
05:54 -9.4 °C -10.4 °C 34428.8 hPa SW 3.1 km/h   89% 0 mm 17.60 W/m2 BKN
05:59 -9.4 °C -10.4 °C 34432.2 hPa Calm     89% 0 mm 23.10 W/m2 BKN
06:05 -9.4 °C -10.4 °C 34428.8 hPa Calm   5.1 km/h 89% 0 mm 28.60 W/m2 FEW
06:09 -9.3 °C -10.3 °C 34432.2 hPa Calm     89% 0 mm 33.00 W/m2 FEW
06:14 -9.3 °C -10.3 °C 34432.2 hPa Calm     89% 0 mm 36.30 W/m2 FEW
06:20 -9.3 °C -10.3 °C 34432.2 hPa Calm   5.1 km/h 89% 0 mm 33.00 W/m2 FEW
06:25 -9.3 °C -10.4 °C 34435.6 hPa Calm   5.1 km/h 88% 0 mm 42.90 W/m2 FEW
06:29 -9.3 °C -10.3 °C 34435.6 hPa Calm     89% 0 mm 50.60 W/m2 FEW
06:34 -9.3 °C -10.4 °C 34439 hPa SSW 6 km/h 0.8 km/h 88% 0 mm 51.70 W/m2 FEW
06:39 -9.2 °C -10.3 °C 34439 hPa Calm     88% 0 mm 48.40 W/m2 FEW
06:44 -9.2 °C -10.3 °C 34439 hPa Calm     88% 0 mm 51.70 W/m2 FEW
06:49 -9.1 °C -10.2 °C 34439 hPa Calm     88% 0 mm 59.40 W/m2 FEW
06:54 -9.1 °C -10.2 °C 34439 hPa Calm     88% 0 mm 66.00 W/m2 FEW
07:00 -9.1 °C -10.3 °C 34439 hPa Calm   5.1 km/h 87% 0 mm 75.90 W/m2 FEW
07:04 -9.1 °C -10.3 °C 34439 hPa Calm     87% 0 mm 81.40 W/m2 SCT
07:10 -9.1 °C -10.2 °C 34439 hPa Calm     87% 0 mm 89.10 W/m2 BKN
07:15 -9 °C -10.2 °C 34439 hPa Calm     87% 0 mm 92.40 W/m2 BKN
07:19 -9 °C -10.2 °C 34439 hPa NE 3.1 km/h   87% 0 mm 96.80 W/m2 SCT
07:24 -8.9 °C -10.2 °C 34442.4 hPa Calm     87% 0 mm 110.00 W/m2 SCT
07:30 -8.9 °C -10.2 °C 34442.4 hPa Calm     86% 0 mm 145.20 W/m2 SCT
07:34 -8.8 °C -10.1 °C 34445.8 hPa Calm     86% 0 mm 122.10 W/m2 SCT
07:39 -8.7 °C -10.1 °C 34445.8 hPa Calm     85% 0 mm 140.80 W/m2 SCT
07:44 -8.7 °C -10.2 °C 34445.8 hPa SSW 9 km/h 3.7 km/h 84% 0 mm 140.80 W/m2 SCT
07:49 -8.6 °C -10.2 °C 34449.2 hPa Calm     83% 0 mm 171.60 W/m2 SCT
07:55 -8.4 °C -10.2 °C 34449.2 hPa SW 12.9 km/h 25.9 km/h 82% 0 mm 160.60 W/m2 BKN
07:59 -8.4 °C -10.1 °C 34449.2 hPa SSW 15.6 km/h 8.5 km/h 82% 0 mm 166.10 W/m2 SCT
08:04 -8.3 °C -10.2 °C 34449.2 hPa SSW 17.9 km/h 8.5 km/h 81% 0 mm 212.30 W/m2 SCT
08:10 -8.3 °C -10.2 °C 34449.2 hPa SSW 12.9 km/h 20.8 km/h 80% 0 mm 253.00 W/m2 SCT
08:14 -8.2 °C -10.2 °C 34449.2 hPa South 17.9 km/h 11.1 km/h 80% 0 mm 257.40 W/m2 SCT
08:19 -8.2 °C -10.1 °C 34449.2 hPa SSW 17.9 km/h 7.7 km/h 80% 0 mm 257.40 W/m2 FEW
08:25 -8.1 °C -10.1 °C 34449.2 hPa SSW 7.7 km/h 23.3 km/h 79% 0 mm 232.10 W/m2 SCT
08:29 -8 °C -10.1 °C 34449.2 hPa WSW 11.9 km/h 4.7 km/h 79% 0 mm 199.10 W/m2 SCT
08:34 -7.9 °C -10.1 °C 34452.6 hPa WSW 20.9 km/h 10.9 km/h 78% 0 mm 132.00 W/m2 SCT
08:40 -7.9 °C -10.1 °C 34455.9 hPa SW 18.2 km/h 31.1 km/h 78% 0 mm 166.10 W/m2 BKN
08:45 -7.8 °C -10 °C 34455.9 hPa SW 7.7 km/h 23.3 km/h 78% 0 mm 181.50 W/m2 BKN
08:49 -7.8 °C -9.9 °C 34455.9 hPa WSW 11.9 km/h 9.3 km/h 78% 0 mm 222.20 W/m2 SCT
08:54 -7.7 °C -9.9 °C 34459.3 hPa SW 20.9 km/h 14 km/h 77% 0 mm 260.70 W/m2 SCT
09:00 -7.7 °C -9.9 °C 34459.3 hPa SW 7.7 km/h 20.8 km/h 77% 0 mm 249.70 W/m2 SCT
09:05 -7.6 °C -10 °C 34459.3 hPa SW 18.2 km/h 25.9 km/h 76% 0 mm 145.20 W/m2 BKN
09:09 -7.7 °C -9.9 °C 34459.3 hPa SSW 18.2 km/h 14.8 km/h 77% 0 mm 143.00 W/m2 BKN
09:15 -7.7 °C -9.9 °C 34459.3 hPa WSW 7.7 km/h 23.3 km/h 77% 0 mm 235.40 W/m2 BKN
09:19 -7.6 °C -9.9 °C 34459.3 hPa SSW 11.9 km/h 9.3 km/h 77% 0 mm 291.50 W/m2 BKN
09:24 -7.6 °C -10 °C 34455.9 hPa SSW 15 km/h 9.7 km/h 76% 0 mm 249.70 W/m2 BKN
09:29 -7.6 °C -9.9 °C 34459.3 hPa WSW 20.9 km/h 12.9 km/h 77% 0 mm 170.50 W/m2 BKN
09:34 -7.6 °C -9.8 °C 34459.3 hPa WSW 18.2 km/h 9.7 km/h 77% 0 mm 235.40 W/m2 BKN
09:39 -7.6 °C -10 °C 34459.3 hPa WSW 15.6 km/h 11.9 km/h 76% 0 mm 216.70 W/m2 BKN
09:45 -7.6 °C -9.9 °C 34455.9 hPa West 7.7 km/h 23.3 km/h 77% 0 mm 163.90 W/m2 BKN
09:49 -7.6 °C -9.9 °C 34455.9 hPa WNW 23.3 km/h 12.9 km/h 77% 0 mm 226.60 W/m2 BKN
09:54 -7.6 °C -9.7 °C 34455.9 hPa SSW 20.8 km/h 11.4 km/h 78% 0 mm 293.70 W/m2 BKN
09:59 -7.5 °C -9.8 °C 34455.9 hPa South 20.8 km/h 9.3 km/h 77% 0 mm 744.70 W/m2 BKN
10:04 -7.4 °C -9.9 °C 34455.9 hPa SW 20.9 km/h 11.9 km/h 75% 0 mm 311.30 W/m2 FEW
10:09 -7.3 °C -9.9 °C 34455.9 hPa SSW 17.9 km/h 9.8 km/h 74% 0 mm 369.60 W/m2 FEW
10:14 -7.3 °C -9.9 °C 34459.3 hPa SSW 17.9 km/h 9.7 km/h 74% 0 mm 882.20 W/m2 FEW
10:19 -7.1 °C -9.9 °C 34459.3 hPa WSW 29.8 km/h 18.2 km/h 73% 0 mm 336.60 W/m2 FEW
10:25 -7.1 °C -9.9 °C 34455.9 hPa SW 12.9 km/h 20.8 km/h 73% 0 mm 291.50 W/m2 FEW
10:29 -7.2 °C -9.9 °C 34459.3 hPa SSW 23.8 km/h 16.1 km/h 73% 0 mm 379.50 W/m2 FEW
10:35 -7.1 °C -9.9 °C 34459.3 hPa SW 12.9 km/h 25.9 km/h 73% 0 mm 331.10 W/m2 FEW
10:39 -7.1 °C -9.9 °C 34459.3 hPa SW 25.9 km/h 18.8 km/h 72% 0 mm 226.60 W/m2 FEW
10:44 -7.1 °C -9.9 °C 34462.7 hPa WSW 26.9 km/h 18.3 km/h 72% 0 mm 156.20 W/m2 FEW
10:50 -7.1 °C -10 °C 34462.7 hPa WSW 18.2 km/h 31.1 km/h 72% 0 mm 173.80 W/m2 FEW
10:54 -7.3 °C -10.1 °C 34459.3 hPa WSW 35.7 km/h 23.5 km/h 73% 0 mm 203.50 W/m2 FEW
11:00 -7.3 °C -9.8 °C 34462.7 hPa WSW 15.6 km/h 31.1 km/h 75% 0 mm 251.90 W/m2 FEW
11:05 -7.3 °C -9.7 °C 34466.1 hPa WSW 18.2 km/h 31.1 km/h 76% 0 mm 278.30 W/m2 SCT
11:09 -7.3 °C -9.8 °C 34466.1 hPa West 20.9 km/h 12.7 km/h 76% 0 mm 303.60 W/m2 SCT
11:15 -7.3 °C -9.9 °C 34466.1 hPa WSW 18.2 km/h 31.1 km/h 74% 0 mm 298.10 W/m2 SCT
Sunningdale,Caerphilly,Wales
Compliments of Weather Underground - 2.25 mb